Location: ?????????
(38.4921°N, 22.9787°E)
Time: 03:24:02
(UTC+00:00)

Cosmos-2242 - Pass Details

Date: 08 December 2025
Orbit: 566 x 591 km, 82.5° (Epoch: 15 January)

Event Time Altitude Azimuth Distance (km) Brightness Sun altitude
Rises 04:15:39 0° 355° (N) 2,824 6.2 -14.7°
Reaches altitude 10° 04:17:53 10° 358° (N) 1,916 5.4 -14.3°
Maximum altitude 04:22:06 68° 81° (E) 631 3.3 -13.5°
Drops below altitude 10° 04:26:15 10° 165° (SSE) 1,886 6.0 -12.8°
Sets 04:28:25 0° 168° (SSE) 2,776 6.9 -12.4°
